Simultaneous Nadir Overpasses (SNOs) Predictions

Prediction of SNOs between LANDSAT-8 and NPP Satellite Orbit:

Table of predicted SNOs for the next 14.0 days since TLE Epoch: 9/13/2016
Index Date (LANDSAT-8) Time (LANDSAT-8) Lat,Lon (LANDSAT-8) SZA (LANDSAT-8 ) Date (NPP) Time (NPP) Lat,Lon (NPP) SZA (NPP ) Distance(km) Time Diff (sec)
1 09/13/2016 14:42:08 -70.18, 136.09 113.39 09/13/2016 14:41:08 -70.20, 136.06 113.36 3.07 60
2 09/13/2016 15:31:35 70.07, -56.42 66.52 09/13/2016 15:31:52 70.09, -56.46 66.54 2.49 17
3 09/13/2016 16:21:14 -69.47, 110.38 114.06 09/13/2016 16:22:23 -69.42, 111.85 114.13 57.63 69
4 09/16/2016 06:58:38 -70.14,-108.08 112.40 09/16/2016 06:58:00 -70.14,-108.06 112.40 0.91 38
5 09/16/2016 07:48:05 70.03, 59.41 67.51 09/16/2016 07:48:44 70.02, 59.42 67.50 0.86 39
6 09/18/2016 22:25:30 70.64,-159.11 69.11 09/18/2016 22:24:20 70.69,-160.48 69.19 50.86 70
7 09/18/2016 23:15:08 -70.10, 7.74 111.41 09/18/2016 23:14:53 -70.13, 7.73 111.38 3.27 15
8 09/19/2016 00:04:35 69.98, 175.22 68.49 09/19/2016 00:05:37 70.01, 175.21 68.52 3.51 62
9 09/21/2016 14:42:06 70.20, -43.87 69.72 09/21/2016 14:41:03 70.21, -43.93 69.73 2.71 63
10 09/21/2016 15:31:37 -70.05, 123.55 110.42 09/21/2016 15:31:44 -70.06, 123.61 110.41 3.03 7
11 09/21/2016 16:21:11 69.54, -69.50 69.10 09/21/2016 16:22:20 69.53, -68.29 69.07 47.26 69
12 09/24/2016 06:58:36 70.14, 71.93 70.70 09/24/2016 06:57:55 70.15, 71.94 70.71 1.07 41
13 09/24/2016 07:48:06 -70.04,-120.57 109.39 09/24/2016 07:48:37 -70.06,-120.60 109.37 1.77 31
14 09/26/2016 22:25:26 -70.90, 21.31 107.51 09/26/2016 22:24:18 -70.98, 19.06 107.41 82.00 68
15 09/26/2016 23:15:05 70.13,-172.20 71.73 09/26/2016 23:14:48 70.15,-172.28 71.75 3.41 17
16 09/27/2016 00:04:36 -69.98, -4.78 108.41 09/27/2016 00:05:29 -70.00, -4.74 108.39 2.61 53




NCC Satellite Simultaneous Nadir Overpasses (SNOs) Prediction Service
